TimeEDT,TemperatureF,Dew PointF,Humidity,Sea Level PressureIn,VisibilityMPH,Wind Direction,Wind SpeedMPH,Gust SpeedMPH,PrecipitationIn,Events,Conditions,WindDirDegrees,DateUTC
12:54 AM,54.0,52.0,93,30.07,10.0,Calm,Calm,-,N/A,,Clear,0,2013-09-20 04:54:00
1:54 AM,53.1,51.1,93,30.08,8.0,Calm,Calm,-,N/A,,Clear,0,2013-09-20 05:54:00
2:54 AM,53.1,51.1,93,30.07,8.0,Calm,Calm,-,N/A,,Mostly Cloudy,0,2013-09-20 06:54:00
3:54 AM,52.0,50.0,93,30.08,8.0,Calm,Calm,-,N/A,,Mostly Cloudy,0,2013-09-20 07:54:00
4:02 AM,51.8,48.2,88,30.09,8.0,Calm,Calm,-,N/A,,Scattered Clouds,0,2013-09-20 08:02:00
4:54 AM,52.0,50.0,93,30.09,7.0,Calm,Calm,-,N/A,,Mostly Cloudy,0,2013-09-20 08:54:00
5:41 AM,53.6,51.8,94,30.08,1.8,Calm,Calm,-,N/A,,Overcast,0,2013-09-20 09:41:00
5:49 AM,53.6,51.8,94,30.08,0.2,Calm,Calm,-,N/A,Fog,Fog,0,2013-09-20 09:49:00
5:50 AM,53.1,52.0,96,30.08,0.2,Calm,Calm,-,N/A,Fog,Fog,0,2013-09-20 09:50:00
5:59 AM,53.6,51.8,94,30.08,0.5,Calm,Calm,-,N/A,Fog,Fog,0,2013-09-20 09:59:00
6:09 AM,51.8,51.8,100,30.08,2.5,Calm,Calm,-,N/A,,Overcast,0,2013-09-20 10:09:00
6:16 AM,51.8,51.8,100,30.08,4.0,Calm,Calm,-,N/A,,Overcast,0,2013-09-20 10:16:00
6:40 AM,51.8,50.0,94,30.08,1.8,Calm,Calm,-,N/A,,Overcast,0,2013-09-20 10:40:00
6:50 AM,51.8,51.8,100,30.08,0.5,Calm,Calm,-,N/A,Fog,Fog,0,2013-09-20 10:50:00
6:54 AM,52.0,51.1,97,30.07,0.8,North,4.6,-,N/A,,Overcast,10,2013-09-20 10:54:00
7:17 AM,51.8,51.8,100,30.08,0.2,Calm,Calm,-,N/A,Fog,Fog,0,2013-09-20 11:17:00
7:49 AM,53.6,51.8,94,30.07,0.5,Calm,Calm,-,N/A,Fog,Fog,0,2013-09-20 11:49:00
7:54 AM,53.1,52.0,96,30.08,0.5,Calm,Calm,-,N/A,Fog,Fog,0,2013-09-20 11:54:00
8:01 AM,53.6,51.8,94,30.07,0.2,Calm,Calm,-,N/A,Fog,Fog,0,2013-09-20 12:01:00
8:54 AM,53.1,53.1,100,30.08,0.2,Calm,Calm,-,N/A,Fog,Fog,0,2013-09-20 12:54:00
9:40 AM,55.4,53.6,94,30.08,1.0,Calm,Calm,-,N/A,,Overcast,0,2013-09-20 13:40:00
9:51 AM,55.4,53.6,94,30.08,2.5,Calm,Calm,-,N/A,,Overcast,0,2013-09-20 13:51:00
9:54 AM,55.0,54.0,96,30.08,2.5,Calm,Calm,-,N/A,,Overcast,0,2013-09-20 13:54:00
10:12 AM,55.4,55.4,100,30.08,3.0,Calm,Calm,-,N/A,,Overcast,0,2013-09-20 14:12:00
10:32 AM,60.8,55.4,82,30.07,6.0,Calm,Calm,-,N/A,,Haze,0,2013-09-20 14:32:00
10:54 AM,63.0,55.9,78,30.06,9.0,Calm,Calm,-,N/A,,Clear,0,2013-09-20 14:54:00
11:54 AM,71.1,57.0,61,30.04,10.0,Calm,Calm,-,N/A,,Clear,0,2013-09-20 15:54:00
12:54 PM,75.0,57.0,53,30.01,10.0,SSE,13.8,19.6,N/A,,Clear,150,2013-09-20 16:54:00
1:54 PM,75.9,57.0,52,29.99,10.0,SSE,9.2,20.7,N/A,,Clear,160,2013-09-20 17:54:00
2:54 PM,78.1,57.0,48,29.98,10.0,Variable,6.9,16.1,N/A,,Clear,0,2013-09-20 18:54:00
3:54 PM,79.0,55.9,45,29.95,10.0,SE,11.5,16.1,N/A,,Partly Cloudy,130,2013-09-20 19:54:00
4:54 PM,78.1,55.9,46,29.93,10.0,South,6.9,-,N/A,,Clear,180,2013-09-20 20:54:00
5:54 PM,77.0,55.9,48,29.92,10.0,ESE,11.5,16.1,N/A,,Clear,110,2013-09-20 21:54:00
6:54 PM,71.1,57.9,63,29.93,10.0,Calm,Calm,-,N/A,,Clear,0,2013-09-20 22:54:00
7:54 PM,68.0,57.9,70,29.91,10.0,Calm,Calm,-,N/A,,Partly Cloudy,0,2013-09-20 23:54:00
8:54 PM,63.0,57.0,81,29.92,10.0,SSW,3.5,-,N/A,,Clear,210,2013-09-21 00:54:00
9:54 PM,68.0,55.9,65,29.94,10.0,ENE,6.9,-,N/A,,Clear,60,2013-09-21 01:54:00
10:54 PM,66.0,55.9,70,29.95,10.0,ESE,9.2,-,N/A,,Partly Cloudy,110,2013-09-21 02:54:00
11:54 PM,66.9,57.0,70,29.92,10.0,SSE,15.0,24.2,N/A,,Clear,160,2013-09-21 03:54:00